N11816 KTEB-KRDG

Flight info

Callsign N11816
Flight time 0h 29m
Altitude VFR/065
Route FF
Aircraft TBM8/L-VGD/C

Departure

Time 2026-05-06 01:13
Airport Teterboro Airport (KTEB)

Arrival

Time 2026-05-06 01:43
Airport Reading Regional Airport (Carl A Spaatz Field) (KRDG)
Time Latitude Longitude Altitude Speed Heading
2026-05-06 01:08 40.85472 -74.06386 10 ft 0 kts 125°
2026-05-06 01:09 40.85471 -74.06382 10 ft 4 kts 124°
2026-05-06 01:09 40.85476 -74.06278 13 ft 20 kts 66°
2026-05-06 01:10 40.85492 -74.06095 10 ft 15 kts 60°
2026-05-06 01:10 40.85572 -74.06065 10 ft 12 kts 358°
2026-05-06 01:10 40.85662 -74.06054 10 ft 16 kts
2026-05-06 01:10 40.85776 -74.06030 10 ft 13 kts 63°
2026-05-06 01:11 40.85779 -74.05862 10 ft 23 kts 91°
2026-05-06 01:11 40.85797 -74.05678 10 ft 22 kts 83°
2026-05-06 01:11 40.85816 -74.05515 10 ft 0 kts 78°
2026-05-06 01:12 40.85816 -74.05514 10 ft 0 kts 78°
2026-05-06 01:12 40.85816 -74.05503 10 ft 6 kts 94°
2026-05-06 01:12 40.85759 -74.05428 10 ft 15 kts 203°
2026-05-06 01:12 40.85633 -74.05612 10 ft 50 kts 229°
2026-05-06 01:13 40.85288 -74.06129 54 ft 94 kts 229°
2026-05-06 01:13 40.84856 -74.06919 289 ft 115 kts 235°
2026-05-06 01:13 40.84373 -74.07850 572 ft 126 kts 237°
2026-05-06 01:13 40.83994 -74.08871 1015 ft 132 kts 245°
2026-05-06 01:14 40.83496 -74.11388 1560 ft 160 kts 251°
2026-05-06 01:14 40.83227 -74.12977 1240 ft 190 kts 246°
2026-05-06 01:14 40.82857 -74.14648 1383 ft 190 kts 248°
2026-05-06 01:15 40.82499 -74.16331 1449 ft 191 kts 247°
2026-05-06 01:15 40.82249 -74.17446 1476 ft 192 kts 246°
2026-05-06 01:15 40.81858 -74.19137 1491 ft 193 kts 247°
2026-05-06 01:15 40.81461 -74.20838 1510 ft 194 kts 245°
2026-05-06 01:16 40.81054 -74.22546 1510 ft 196 kts 246°
2026-05-06 01:16 40.80657 -74.24226 1743 ft 186 kts 246°
2026-05-06 01:16 40.80279 -74.25818 1987 ft 178 kts 246°
2026-05-06 01:16 40.79913 -74.27353 2230 ft 173 kts 246°
2026-05-06 01:17 40.79550 -74.28846 2476 ft 169 kts 246°
2026-05-06 01:17 40.79191 -74.30311 2734 ft 167 kts 245°
2026-05-06 01:17 40.78839 -74.31756 2971 ft 169 kts 246°
2026-05-06 01:17 40.78473 -74.33245 3207 ft 172 kts 247°
2026-05-06 01:18 40.78106 -74.34759 3461 ft 174 kts 248°
2026-05-06 01:18 40.77740 -74.36293 3722 ft 176 kts 246°
2026-05-06 01:18 40.77369 -74.37843 3976 ft 178 kts 246°
2026-05-06 01:18 40.76992 -74.39409 4225 ft 180 kts 247°
2026-05-06 01:19 40.76614 -74.40988 4477 ft 181 kts 248°
2026-05-06 01:19 40.76232 -74.42577 4724 ft 182 kts 248°
2026-05-06 01:19 40.75847 -74.44165 4959 ft 182 kts 249°
2026-05-06 01:19 40.75463 -74.45762 5190 ft 183 kts 249°
2026-05-06 01:20 40.75077 -74.47359 5439 ft 183 kts 249°
2026-05-06 01:20 40.74691 -74.48949 5691 ft 183 kts 249°
2026-05-06 01:20 40.74304 -74.50552 5935 ft 184 kts 249°
2026-05-06 01:20 40.73913 -74.52168 6190 ft 185 kts 249°
2026-05-06 01:21 40.73519 -74.53788 6435 ft 186 kts 249°
2026-05-06 01:21 40.73113 -74.55458 6468 ft 196 kts 250°
2026-05-06 01:21 40.72692 -74.57199 6480 ft 202 kts 250°
2026-05-06 01:21 40.72264 -74.58981 6494 ft 206 kts 250°
2026-05-06 01:22 40.71824 -74.60800 6499 ft 209 kts 250°
2026-05-06 01:22 40.71377 -74.62636 6499 ft 211 kts 250°
2026-05-06 01:22 40.70934 -74.64462 6489 ft 212 kts 251°
2026-05-06 01:22 40.70484 -74.66325 6491 ft 213 kts 251°
2026-05-06 01:23 40.70033 -74.68187 6497 ft 213 kts 250°
2026-05-06 01:23 40.69577 -74.70048 6502 ft 214 kts 250°
2026-05-06 01:23 40.69119 -74.71916 6502 ft 214 kts 250°
2026-05-06 01:23 40.68659 -74.73778 6500 ft 214 kts 250°
2026-05-06 01:24 40.68199 -74.75643 6502 ft 214 kts 250°
2026-05-06 01:24 40.67739 -74.77514 6505 ft 214 kts 250°
2026-05-06 01:24 40.67280 -74.79379 6507 ft 214 kts 250°
2026-05-06 01:24 40.66822 -74.81249 6506 ft 214 kts 250°
2026-05-06 01:25 40.66361 -74.83116 6508 ft 214 kts 250°
2026-05-06 01:25 40.65903 -74.84984 6515 ft 214 kts 250°
2026-05-06 01:25 40.65443 -74.86850 6514 ft 215 kts 250°
2026-05-06 01:25 40.64981 -74.88723 6511 ft 215 kts 250°
2026-05-06 01:26 40.64518 -74.90595 6506 ft 215 kts 250°
2026-05-06 01:26 40.64057 -74.92466 6505 ft 215 kts 250°
2026-05-06 01:26 40.63603 -74.94311 6504 ft 214 kts 250°
2026-05-06 01:26 40.63144 -74.96175 6501 ft 214 kts 250°
2026-05-06 01:27 40.62683 -74.98040 6490 ft 214 kts 250°
2026-05-06 01:27 40.62222 -74.99902 6476 ft 213 kts 250°
2026-05-06 01:27 40.61763 -75.01752 6481 ft 212 kts 250°
2026-05-06 01:27 40.61306 -75.03600 6506 ft 212 kts 250°
2026-05-06 01:28 40.60849 -75.05446 6520 ft 213 kts 250°
2026-05-06 01:28 40.60386 -75.07306 6526 ft 214 kts 249°
2026-05-06 01:28 40.59922 -75.09177 6519 ft 214 kts 249°
2026-05-06 01:28 40.59459 -75.11039 6521 ft 214 kts 249°
2026-05-06 01:29 40.58996 -75.12901 6518 ft 213 kts 249°
2026-05-06 01:29 40.58537 -75.14756 6543 ft 214 kts 249°
2026-05-06 01:29 40.58070 -75.16617 6538 ft 214 kts 249°
2026-05-06 01:29 40.57605 -75.18482 6547 ft 215 kts 250°
2026-05-06 01:30 40.57139 -75.20350 6537 ft 215 kts 249°
2026-05-06 01:30 40.56682 -75.22195 6540 ft 215 kts 249°
2026-05-06 01:30 40.56217 -75.24066 6542 ft 215 kts 249°
2026-05-06 01:30 40.55748 -75.25936 6534 ft 215 kts 249°
2026-05-06 01:31 40.55281 -75.27797 6527 ft 214 kts 249°
2026-05-06 01:31 40.54815 -75.29656 6512 ft 213 kts 249°
2026-05-06 01:31 40.54351 -75.31507 6512 ft 213 kts 249°
2026-05-06 01:31 40.53886 -75.33357 6522 ft 213 kts 249°
2026-05-06 01:32 40.53423 -75.35210 6531 ft 214 kts 249°
2026-05-06 01:32 40.52959 -75.37068 6543 ft 214 kts 249°
2026-05-06 01:32 40.52496 -75.38926 6525 ft 214 kts 249°
2026-05-06 01:32 40.52031 -75.40779 6514 ft 213 kts 249°
2026-05-06 01:33 40.51565 -75.42630 6510 ft 213 kts 249°
2026-05-06 01:33 40.51098 -75.44478 6513 ft 213 kts 249°
2026-05-06 01:33 40.50637 -75.46313 6436 ft 217 kts 248°
2026-05-06 01:33 40.50152 -75.48221 6193 ft 223 kts 248°
2026-05-06 01:34 40.49661 -75.50176 5942 ft 227 kts 248°
2026-05-06 01:34 40.49164 -75.52151 5678 ft 228 kts 249°
2026-05-06 01:34 40.48662 -75.54136 5428 ft 229 kts 248°
2026-05-06 01:34 40.48158 -75.56118 5182 ft 229 kts 248°
2026-05-06 01:35 40.47659 -75.58100 4936 ft 228 kts 248°
2026-05-06 01:35 40.47161 -75.60072 4703 ft 227 kts 248°
2026-05-06 01:35 40.46664 -75.62033 4454 ft 225 kts 248°
2026-05-06 01:35 40.46167 -75.63986 4209 ft 225 kts 247°
2026-05-06 01:36 40.45683 -75.65931 3965 ft 221 kts 249°
2026-05-06 01:36 40.45221 -75.67820 3710 ft 214 kts 248°
2026-05-06 01:36 40.44753 -75.69660 3465 ft 210 kts 247°
2026-05-06 01:36 40.44292 -75.71434 3227 ft 206 kts 247°
2026-05-06 01:37 40.43833 -75.73201 2979 ft 204 kts 247°
2026-05-06 01:37 40.43381 -75.74959 2754 ft 203 kts 247°
2026-05-06 01:37 40.42929 -75.76712 2567 ft 203 kts 246°
2026-05-06 01:37 40.42483 -75.78435 2532 ft 196 kts 246°
2026-05-06 01:38 40.42048 -75.80107 2543 ft 192 kts 244°
2026-05-06 01:38 40.41715 -75.81809 2488 ft 193 kts 255°
2026-05-06 01:38 40.41576 -75.83543 2428 ft 186 kts 258°
2026-05-06 01:38 40.41529 -75.85135 2277 ft 167 kts 260°
2026-05-06 01:39 40.41574 -75.86568 2313 ft 145 kts 264°
2026-05-06 01:39 40.41737 -75.87768 2190 ft 123 kts 268°
2026-05-06 01:39 40.41985 -75.88831 1964 ft 124 kts 272°
2026-05-06 01:39 40.42278 -75.89916 1919 ft 130 kts 272°
2026-05-06 01:40 40.42628 -75.91039 1709 ft 136 kts 279°
2026-05-06 01:40 40.42947 -75.92208 1449 ft 134 kts 266°
2026-05-06 01:40 40.43002 -75.93370 1378 ft 122 kts 258°
2026-05-06 01:40 40.42972 -75.94429 1243 ft 114 kts 258°
2026-05-06 01:41 40.42814 -75.95426 1149 ft 110 kts 237°
2026-05-06 01:41 40.42272 -75.96088 1125 ft 109 kts 205°
2026-05-06 01:41 40.41504 -75.96296 941 ft 115 kts 191°
2026-05-06 01:41 40.40750 -75.96452 753 ft 102 kts 187°
2026-05-06 01:42 40.40012 -75.96490 625 ft 110 kts 177°
2026-05-06 01:42 40.39304 -75.96428 487 ft 106 kts 172°
2026-05-06 01:42 40.38554 -75.96281 345 ft 112 kts 172°
2026-05-06 01:42 40.37879 -75.96161 326 ft 78 kts 171°
2026-05-06 01:43 40.37571 -75.96104 333 ft 30 kts 173°
2026-05-06 01:43 40.37350 -75.96064 337 ft 35 kts 171°
2026-05-06 01:43 40.37157 -75.96057 348 ft 19 kts 276°
2026-05-06 01:43 40.37263 -75.96214 342 ft 25 kts 322°
2026-05-06 01:44 40.37256 -75.96312 345 ft 7 kts 192°
2026-05-06 01:44 40.37246 -75.96316 349 ft 5 kts 196°
2026-05-06 01:44 40.37217 -75.96326 356 ft 2 kts 195°